Theta_e
308 308 308 308 309 309 309 309 310 310 311 312 313 313 313 313 312 311 310 312 313 312 312 313 314 314 314 314 312 307 306 307 311 311 313 312 312 311 309 311 309 310 312 310 314
309 309 309 309 309 309 309 310 311 311 312 314 315 315 315 314 312 313 313 315 314 313 313 313 312 312 309 314 312 307 305 307 308 310 314 313 312 311 311 309 311 309 308 310 314
309 309 309 309 310 310 310 311 311 313 314 316 316 316 316 313 310 309 314 314 314 312 313 313 313 312 312 313 314 311 309 309 312 311 312 313 312 310 311 312 309 310 307 306 305
309 309 310 310 310 310 311 312 312 314 316 317 318 317 316 313 310 312 312 310 313 312 313 313 311 312 312 312 312 315 312 311 313 312 312 313 311 312 310 310 306 304 304 303 303
310 311 311 310 310 311 312 315 316 317 318 319 319 318 315 311 312 313 312 310 310 312 313 311 312 311 312 311 311 314 312 311 311 309 309 309 309 310 309 306 303 304 304 302 301
313 313 313 313 313 313 315 317 319 319 320 320 319 315 312 315 315 315 314 312 311 311 312 311 310 309 310 311 311 309 310 309 308 309 309 310 309 310 307 303 304 305 302 300 300
316 316 316 315 314 314 316 318 319 320 321 321 317 312 312 313 314 315 315 312 311 312 310 311 311 311 310 311 309 310 311 307 308 309 309 307 310 309 307 302 304 303 301 300 298
316 316 316 315 315 315 316 318 319 320 321 320 312 312 312 313 313 315 314 313 313 312 312 312 311 309 311 309 307 309 307 310 310 309 310 309 311 311 304 304 304 302 299 298 297
317 316 316 315 315 315 317 319 320 321 319 314 314 312 313 310 311 314 314 312 312 311 311 311 310 309 309 308 308 307 311 309 309 309 310 309 311 310 303 303 303 300 298 297 296
318 317 316 315 315 316 318 320 320 317 315 315 316 314 312 311 309 311 312 311 310 308 309 308 305 307 306 307 312 311 309 308 308 310 310 311 310 308 303 302 301 298 296 296 295
319 318 316 315 315 317 318 320 316 315 316 316 315 314 311 309 309 309 310 310 309 307 309 308 307 309 309 306 309 308 308 309 308 309 311 310 310 308 303 303 301 299 297 296 295
320 320 318 316 316 317 319 318 317 315 318 315 315 312 311 309 309 308 310 310 309 309 307 308 307 307 307 307 308 308 309 308 308 309 309 310 309 305 303 301 300 298 297 296 296
323 321 320 317 316 317 318 320 317 315 317 317 315 315 315 310 311 309 308 308 310 309 308 310 312 308 309 308 308 307 308 309 311 311 308 308 309 306 302 300 299 297 296 296 295
325 324 321 317 316 318 318 319 320 315 317 317 316 316 311 311 313 310 308 309 309 311 309 310 309 311 309 310 309 311 309 311 313 312 314 308 312 309 304 301 299 297 296 295 294
324 323 322 318 318 318 317 319 319 313 327 316 315 308 309 316 310 308 307 309 310 310 311 315 311 310 312 311 309 312 309 310 310 308 309 308 309 307 303 303 300 297 296 295 294
324 323 323 318 318 319 317 316 315 321 327 318 309 308 312 308 307 306 308 307 308 311 310 312 308 309 310 309 309 306 308 307 305 306 311 309 309 310 306 305 300 297 296 295 293
323 324 322 319 318 318 315 316 323 323 319 316 311 307 312 308 308 308 308 309 312 314 313 310 310 308 308 308 307 307 309 313 312 312 315 309 310 310 306 304 301 299 296 294 292
323 323 323 320 319 318 315 321 321 320 322 310 309 307 311 307 308 307 308 310 308 309 310 314 315 309 307 308 309 307 310 312 311 313 313 309 313 312 303 300 300 298 296 294 292
321 321 319 318 318 318 319 324 324 319 320 312 310 309 308 307 307 307 307 310 310 306 312 311 314 308 307 308 308 309 311 308 308 293 305 309 309 305 301 300 298 298 296 294 292
320 319 319 319 319 318 322 324 320 317 318 311 318 312 310 308 308 307 307 306 309 306 308 312 316 309 308 307 306 309 307 312 308 308 309 309 309 309 304 301 299 298 297 294 292
318 318 317 319 317 319 324 322 321 316 319 313 317 316 310 309 308 308 309 310 309 308 307 310 313 312 309 310 310 309 309 308 309 307 306 304 306 303 305 302 300 299 297 294 292
316 321 314 317 321 319 322 321 318 318 316 320 320 319 316 315 313 310 310 313 308 307 311 309 311 309 310 307 306 308 308 308 311 308 305 306 309 302 304 302 300 299 296 293 291
314 316 311 312 324 323 318 320 318 317 319 321 322 320 318 319 320 318 316 313 310 311 313 313 316 317 316 309 307 309 307 307 307 305 306 308 308 303 301 300 300 298 295 293 291
310 315 309 309 311 319 321 320 319 316 318 320 320 319 319 320 318 318 317 310 309 312 312 312 313 316 314 312 308 309 309 307 309 311 310 310 308 306 303 301 299 297 295 293 291
305 310 307 311 314 313 317 318 319 318 315 318 319 320 320 320 318 317 316 309 306 311 312 313 316 313 311 308 308 306 304 308 310 311 313 313 308 305 304 302 299 297 295 292 290
304 304 302 304 305 311 313 313 318 317 315 317 320 317 318 318 314 313 313 311 311 304 308 307 314 311 308 303 305 309 309 307 308 307 306 303 303 301 296 292 292 292 292 291 288
298 298 303 305 304 309 311 311 310 311 307 306 307 312 315 313 309 306 308 308 309 307 307 306 304 307 310 296 299 307 304 304 306 303 305 306 305 294 293 293 291 289 288 288 286
Wind_Speed
2 3 4 4 4 5 6 7 7 8 10 11 13 15 15 17 17 12 4 2 1 3 1 3 2 4 4 3 4 3 4 1 4 6 2 2 5 1 1 1 4 3 1 4 9
4 4 5 5 6 7 7 8 9 10 11 13 14 15 15 17 16 7 2 3 3 3 3 3 2 3 3 3 3 4 3 6 3 3 1 3 0 4 4 3 2 3 6 12 7
6 6 7 7 7 7 8 8 9 10 11 13 15 15 15 14 5 2 1 4 5 5 4 5 5 3 3 2 2 2 4 3 2 4 1 2 2 1 2 5 3 2 7 7 11
9 9 9 9 9 9 9 9 9 10 12 13 14 14 13 7 4 1 0 2 6 7 7 4 4 3 2 1 1 1 4 3 3 1 2 2 3 4 4 6 4 4 3 7 10
11 10 10 10 10 9 9 10 10 11 12 14 13 12 5 4 7 3 1 2 4 9 4 3 3 3 2 2 2 3 3 2 5 5 5 2 6 4 10 5 8 10 13 10 9
10 10 9 9 8 8 9 9 10 12 13 14 12 9 1 4 3 3 3 3 4 8 5 4 4 5 3 2 3 0 3 6 6 6 3 4 1 2 5 5 9 10 10 9 12
12 10 10 10 10 9 9 10 11 12 13 13 10 4 1 12 4 4 4 3 4 5 4 4 5 3 3 1 2 1 5 7 5 1 4 6 1 7 5 8 9 9 8 9 13
12 12 11 11 10 10 10 11 11 12 14 10 4 2 6 5 6 8 7 4 4 4 2 4 4 4 1 2 6 3 4 4 3 1 1 5 7 2 8 8 7 8 8 9 11
14 13 12 11 10 10 11 11 12 11 8 4 2 2 7 2 4 8 8 5 7 5 4 6 4 3 4 5 4 4 3 4 8 2 2 3 6 3 10 8 8 8 8 8 9
16 15 13 11 10 10 12 11 10 7 2 3 0 2 3 4 3 6 8 11 4 5 4 5 5 3 2 4 6 6 4 4 5 1 3 1 7 7 11 12 7 7 7 8 10
17 16 14 11 9 10 10 3 3 2 3 9 5 4 1 4 6 4 6 8 4 4 6 1 4 9 14 9 2 5 4 5 4 3 1 6 6 5 7 7 7 6 6 7 8
19 17 15 11 9 9 6 2 3 0 7 13 8 8 7 5 3 4 12 6 5 5 6 3 7 10 4 5 4 2 3 6 4 4 5 5 6 3 6 4 4 6 6 6 5
21 20 17 11 9 10 10 10 0 2 3 7 7 6 5 11 7 9 12 5 4 6 8 8 4 7 6 4 5 5 6 5 6 4 2 3 5 4 4 7 8 6 5 5 5
22 23 20 12 5 10 7 8 17 3 4 6 5 5 4 8 5 2 13 6 3 11 7 7 4 6 5 6 9 5 8 6 4 3 4 2 4 2 4 4 4 5 5 4 5
24 21 23 24 7 7 2 7 11 2 6 1 3 1 2 5 5 2 3 4 7 7 6 7 7 5 7 8 7 6 5 6 4 4 1 2 0 5 6 5 5 6 6 5 4
30 24 23 25 14 5 10 15 6 4 10 3 3 5 5 1 1 3 3 4 4 5 2 5 1 7 8 3 7 9 6 6 5 3 1 7 6 4 5 6 7 5 6 7 6
28 26 28 27 9 23 18 8 3 6 0 5 5 5 3 5 2 3 5 6 6 5 6 1 5 3 4 5 2 5 7 1 2 1 5 1 3 7 5 4 11 15 11 8 7
26 27 31 33 25 29 16 4 6 7 7 3 4 4 7 7 4 5 6 5 6 3 3 7 4 10 7 6 7 6 7 5 6 3 3 1 6 5 0 2 9 13 12 9 8
21 26 18 29 34 34 7 7 9 7 6 9 4 4 5 5 6 4 7 6 9 11 8 6 5 1 3 4 6 5 4 3 7 1 3 4 4 1 2 3 8 13 10 10 8
17 10 13 22 37 21 8 14 8 7 5 4 13 9 9 7 7 8 10 6 6 11 4 5 2 1 2 4 3 4 7 3 2 2 4 4 5 5 7 9 8 11 13 9 8
12 3 5 28 34 5 8 6 7 6 5 7 13 8 7 8 9 6 7 2 5 6 8 5 4 1 4 6 9 3 3 2 4 4 5 2 5 5 9 14 18 16 13 12 10
5 6 10 33 8 2 13 6 5 6 8 5 2 5 10 12 9 8 11 4 6 8 9 6 4 4 7 1 1 2 7 7 5 5 3 3 7 2 4 14 16 14 12 10 8
3 2 6 6 8 10 2 7 8 7 9 9 13 8 2 7 3 3 5 1 7 6 8 6 3 2 2 1 1 5 5 4 4 4 8 5 5 4 6 8 9 12 9 8 9
2 3 2 1 2 11 15 9 9 4 5 8 5 5 6 9 7 8 8 3 2 2 7 6 5 6 6 4 1 5 6 5 6 5 5 11 3 3 5 8 9 7 8 9 9
2 2 0 3 10 3 2 8 11 9 8 8 4 16 15 7 9 7 9 4 1 6 6 9 8 7 3 1 3 2 4 7 9 11 9 11 9 8 11 12 14 9 7 8 8
3 3 1 1 1 6 7 4 11 13 8 7 15 13 15 11 11 9 14 6 5 3 6 2 3 5 5 2 2 5 15 9 13 6 6 2 7 4 4 7 7 8 8 7 8
1 2 1 4 3 4 4 6 5 2 3 5 3 1 11 10 2 3 2 4 8 9 7 6 5 4 3 2 3 6 17 16 7 5 8 10 9 6 4 6 9 8 8 10 10
Wind_Direction
335 332 330 333 333 333 335 336 339 337 337 340 337 334 334 330 326 314 264 222 184 175 187 141 77 36 49 67 61 115 61 189 226 162 239 336 14 247 331 271 348 329 284 357 337
304 308 313 316 323 327 328 331 333 333 336 337 335 334 335 332 324 285 230 199 182 167 153 126 84 39 42 33 24 80 109 223 213 206 233 314 294 317 8 10 283 336 346 359 12
287 293 297 302 308 313 318 322 323 328 331 334 333 335 336 337 337 297 207 198 188 177 137 113 101 72 67 25 30 135 191 226 266 230 252 277 286 253 298 309 189 279 296 339 12
283 289 293 297 300 304 310 316 319 322 326 331 332 334 333 344 309 348 207 156 185 170 146 123 55 66 84 246 154 308 239 206 285 64 12 271 312 288 195 236 127 24 26 44 28
276 281 286 292 294 302 312 320 321 321 325 329 329 334 345 14 254 286 239 172 174 176 156 118 113 123 184 200 147 182 276 226 276 281 255 330 256 243 268 340 94 72 54 45 34
278 285 292 296 300 307 313 317 321 320 322 326 325 328 72 262 256 257 235 219 204 181 160 138 177 187 154 191 168 245 284 286 285 269 245 220 290 142 81 95 69 60 46 35 32
279 282 287 291 296 298 303 306 310 312 314 318 320 302 203 241 227 232 225 216 212 196 150 190 153 126 129 299 338 34 331 329 259 277 236 156 222 231 68 74 75 57 50 43 27
274 279 282 285 289 291 295 300 303 306 307 308 326 148 244 253 247 224 189 149 156 155 154 145 162 103 106 128 21 29 48 354 286 147 87 150 265 65 42 83 81 56 42 37 28
272 275 280 283 288 291 292 297 304 304 302 279 282 148 261 266 212 212 201 167 143 128 109 119 93 101 53 102 11 6 235 213 314 184 126 162 256 239 19 65 81 54 39 36 27
270 272 274 279 284 286 293 304 297 291 240 243 240 354 242 233 171 161 170 152 124 110 64 60 54 99 69 115 221 198 210 232 238 12 76 281 275 299 32 74 82 71 49 43 39
264 266 268 273 275 282 299 324 314 279 208 197 203 238 162 145 148 164 158 127 100 84 164 94 132 208 205 200 158 140 185 206 243 229 118 244 258 320 31 67 83 75 68 58 45
260 261 262 260 261 269 283 240 248 213 300 239 237 271 251 183 136 190 163 148 155 177 118 78 227 223 136 174 191 199 184 246 287 261 170 265 254 74 41 45 80 96 75 62 61
256 254 253 247 250 259 236 224 359 339 257 273 203 203 199 173 218 193 160 147 161 147 191 182 218 146 161 168 187 211 203 209 224 335 282 327 283 173 60 84 75 58 70 57 51
255 252 241 223 231 230 238 262 231 268 287 252 220 249 144 144 229 173 173 147 185 188 173 234 242 175 171 204 187 221 201 174 182 113 234 59 278 200 135 110 84 101 96 89 66
244 251 242 212 180 180 256 185 166 171 274 168 166 102 148 176 130 9 147 60 166 167 148 228 175 182 199 219 156 233 137 160 146 155 71 276 38 258 140 180 172 169 152 138 110
249 253 248 204 210 194 167 146 112 122 239 231 141 165 134 143 59 113 121 57 139 129 278 237 236 164 200 163 168 144 80 49 49 81 284 227 179 249 191 185 160 179 178 169 146
245 248 242 202 206 201 161 116 155 202 138 195 188 164 156 162 160 150 161 166 160 141 222 236 221 203 145 99 87 107 107 218 351 344 227 135 151 244 171 165 173 174 181 178 164
248 252 247 215 206 187 153 176 192 198 215 95 104 102 183 160 207 165 131 189 242 129 128 172 254 167 186 190 172 183 165 158 207 204 239 320 231 257 336 277 181 168 169 167 171
256 250 225 214 200 182 181 209 212 165 193 140 111 159 229 225 152 143 195 204 198 180 188 172 271 220 137 141 141 182 187 168 105 57 56 224 276 228 114 91 143 159 163 180 178
230 223 231 216 205 185 214 212 215 182 130 162 198 183 191 201 160 183 178 202 207 182 169 215 180 223 145 105 40 162 161 95 19 174 248 271 268 235 203 188 176 174 184 188 180
217 216 191 211 192 209 216 234 208 209 181 183 212 195 197 178 183 197 203 240 196 172 166 164 136 279 130 205 174 154 181 68 127 154 175 238 250 215 196 184 184 187 191 185 184
193 215 177 174 195 225 214 181 169 196 207 228 306 226 182 173 178 206 203 242 175 152 162 183 142 178 201 159 336 239 195 163 159 212 233 158 256 8 240 179 181 187 189 190 175
212 199 189 218 217 229 187 217 194 178 200 195 223 225 151 179 181 188 176 150 168 152 158 180 149 176 323 45 359 223 200 175 97 76 198 150 253 25 108 145 180 181 184 179 174
180 211 214 239 1 243 221 209 205 195 215 202 202 169 167 191 198 175 190 167 185 107 104 85 172 193 194 162 89 197 195 183 163 199 186 231 249 219 170 176 185 183 173 180 182
195 220 301 205 230 235 289 177 197 206 221 206 234 210 192 197 185 190 187 132 31 172 162 172 201 191 174 177 124 240 248 190 202 227 220 248 209 201 194 190 188 172 164 165 179
163 160 118 140 235 190 206 191 222 209 170 207 224 208 217 209 191 185 173 182 180 194 167 180 199 154 169 109 220 230 248 223 229 226 259 173 256 198 108 102 152 188 174 178 178
99 58 148 164 169 182 203 189 210 346 110 66 356 189 231 232 26 69 98 143 149 157 167 161 135 131 195 121 154 255 236 209 190 176 179 210 229 151 183 191 190 192 176 178 170